Location: *
(48.4333°N, 5.0333°W)
Time: 09:31:52
(UTC+00:00)

ITAMSAT 1 - Visible Passes

Search period start: 28 October 2021 00:00
Search period end: 07 November 2021 00:00
Orbit: 784 x 796 km, 98.9° (Epoch: 27 October)

Date Brightness Start Highest point End Pass type
(mag) Time Alt. Az. Time Alt. Az. Time Alt. Az.
28 Oct 8.1 17:52:06 10° SE 17:56:55 41° ENE 18:01:46 10° N visible
28 Oct 9.4 19:31:53 10° SSW 19:36:27 31° W 19:41:05 10° NNW visible
29 Oct 8.3 19:01:43 10° S 19:06:47 55° W 19:11:54 10° NNW visible
30 Oct 7.6 18:32:03 10° SSE 18:37:14 85° ENE 18:42:28 10° NNW visible
30 Oct 10.5 20:14:31 10° WSW 20:17:22 15° W 20:20:15 10° NW visible
31 Oct 7.8 18:02:51 10° SE 18:07:49 49° ENE 18:12:50 10° N visible
31 Oct 9.7 19:43:14 10° SSW 19:47:31 26° W 19:51:50 10° NW visible
01 Nov 11.0 06:13:41 10° ENE 06:15:47 12° E 06:17:52 10° ESE visible
01 Nov 8.5 17:34:05 10° ESE 17:38:32 30° ENE 17:43:00 10° N visible
01 Nov 8.7 19:12:50 10° S 19:17:48 45° W 19:22:47 10° NNW visible
02 Nov 7.7 18:43:01 10° SSE 18:48:12 80° WSW 18:53:26 10° NNW visible
02 Nov 10.7 20:26:38 10° WSW 20:28:30 12° W 20:30:21 10° WNW visible
03 Nov 7.7 18:13:39 10° SSE 18:18:44 60° ENE 18:23:52 10° N visible
03 Nov 10.0 19:54:41 10° SW 19:58:35 21° W 20:02:32 10° NW visible
04 Nov 10.7 06:23:53 10° NE 06:26:54 15° E 06:29:55 10° ESE visible
04 Nov 8.2 17:44:44 10° SE 17:49:24 35° ENE 17:54:07 10° N visible
04 Nov 9.1 19:24:03 10° SSW 19:28:48 37° W 19:33:38 10° NNW visible
05 Nov 8.0 18:54:02 10° S 18:59:11 66° WSW 19:04:23 10° NNW visible
06 Nov 7.6 18:24:30 10° SSE 18:29:40 73° ENE 18:34:53 10° NNW visible
06 Nov 10.3 20:06:16 10° SW 20:09:40 18° W 20:13:06 10° NW visible
